Location: USNO
(38.9242°N, 77.0663°W)
Time: 15:54:55
(UTC-04:00)

Vanguard 2 Rocket - Visible Passes

Search period start: 20 October 2017 00:00
Search period end: 30 October 2017 00:00
Orbit: 555 x 3327 km, 32.9° (Epoch: 19 October)

Date Brightness Start Highest point End Pass type
(mag) Time Alt. Az. Time Alt. Az. Time Alt. Az.
20 Oct 10.8 20:29:38 10° WSW 20:39:12 20° SW 20:50:55 10° S visible
21 Oct 10.6 19:28:26 10° W 19:38:22 25° SSW 19:51:46 10° SSE visible
22 Oct 10.3 18:28:16 10° W 18:37:40 31° SSW 18:51:33 10° SSE visible
22 Oct 11.1 20:49:44 10° SW 20:53:35 11° SW 20:57:43 10° SSW visible
23 Oct 11.0 19:45:29 10° WSW 19:52:49 16° SSW 20:01:49 10° S visible
24 Oct 10.7 18:44:16 10° WSW 18:52:12 21° SSW 19:02:57 10° SSE visible
26 Oct 11.0 19:02:31 10° SW 19:06:49 12° SSW 19:11:48 10° SSW visible
